Location: Te Maire Creek
(41.1333°S, 175.9167°E)
Time: 22:57:45
(UTC+00:00)

Cosmos 2360 Rocket - Pass Details

Date: 19 May 2024
Orbit: 832 x 846 km, 71.0° (Epoch: 22 June)

Event Time Altitude Azimuth Distance (km) Brightness Sun altitude
Rises 17:01:03 0° 6° (N) 3,389 5.5 -26.3°
Reaches altitude 10° 17:03:42 10° 15° (NNE) 2,461 4.8 -25.8°
Maximum altitude 17:08:39 32° 76° (ENE) 1,420 4.0 -24.9°
Drops below altitude 10° 17:13:37 10° 137° (SE) 2,480 5.1 -23.9°
Sets 17:16:18 0° 146° (SSE) 3,420 5.7 -23.4°
